Weather History for Shirley, NY

Change the Weather History Date:

Thursday, June 27, 2013

  Actual Average (KISP) Record (KISP)
Temperature  
Mean Temperature 75 °F 72 °F  
Max Temperature 82 °F 80 °F 93 °F (2003)
Min Temperature 69 °F 64 °F 52 °F (2004)
Degree Days  
Heating Degree Days 0 0  
Month to date heating degree days 36  
Since 1 June heating degree days 36  
Since 1 July heating degree days 5426  
Cooling Degree Days 10 7  
Month to date cooling degree days 118  
Year to date cooling degree days 142  
Since 1 June cooling degree days 118  
Growing Degree Days 25 (Base 50)    
Moisture  
Dew Point 70 °F    
Average Humidity 84    
Maximum Humidity 96    
Minimum Humidity 70    
Precipitation  
Precipitation 0.01 in 0.11 in 0.48 in (1987)
Month to date precipitation 3.94  
Year to date precipitation 23.40  
Snow  
Snow 0.00 in 0.00 in - ()
Month to date snowfall 0.0  
Since 1 July snowfall 24.8  
Snow Depth -    
Sea Level Pressure  
Sea Level Pressure 29.76 in    
Wind  
Wind Speed 6 mph (SSE)    
Max Wind Speed 16 mph    
Max Gust Speed 23 mph    
Visibility 8 miles    
Events Rain    
T = Trace of Precipitation, MM = Missing Value Source: NWS Daily Summary

Daily Weather History Graph

Daily Weather History Graph

Search for Another Location

Airport:

Trip Planner

Search our weather history database for the weather conditions in past years. The results will help you decide how hot, cold, wet, or windy it might be!

Date:

Astronomy

Jun. 27, 2013 Rise Set
Actual Time 5:21 AM EDT 8:27 PM EDT
Civil Twilight 4:48 AM EDT 9:00 PM EDT
Nautical Twilight 4:05 AM EDT 9:43 PM EDT
Astronomical Twilight 3:15 AM EDT 10:33 PM EDT
Moon 11:20 PM EDT (6/27) 10:21 AM EDT (6/27)
Length of Visible Light 16h 12m
Length of Day
15h 05m
Waning Gibbous, 76% of the Moon is Illuminated
Jun 27
Waning Gibbous
Jun 30
Last Quarter
Jul 8
New
Jul 15
First Quarter
Jul 22
Full

Hourly Weather History & Observations

Time (EDT) Temp. Heat Index Dew Point Humidity Pressure Visibility Wind Dir Wind Speed Gust Speed Precip Events Conditions
12:56 AM 75.0 °F - 68.0 °F 79% 29.82 in 10.0 mi SW 5.8 mph - 0.00 in Rain Light Rain
1:56 AM 72.0 °F - 69.1 °F 91% 29.78 in 10.0 mi NW 3.5 mph - 0.00 in   Clear
2:56 AM 71.1 °F - 68.0 °F 90% 29.79 in 10.0 mi East 3.5 mph - N/A   Clear
3:56 AM 70.0 °F - 68.0 °F 93% 29.78 in 9.0 mi Calm Calm - N/A   Clear
4:56 AM 69.1 °F - 66.9 °F 93% 29.80 in 7.0 mi Calm Calm - N/A   Mostly Cloudy
5:56 AM 70.0 °F - 66.9 °F 90% 29.81 in 5.0 mi SSE 3.5 mph - 0.01 in Rain Light Rain
6:56 AM 72.0 °F - 69.1 °F 91% 29.81 in 5.0 mi South 3.5 mph - 0.00 in   Mostly Cloudy
7:56 AM 75.0 °F - 71.1 °F 87% 29.80 in 7.0 mi SSW 5.8 mph - N/A   Partly Cloudy
8:56 AM 77.0 °F - 70.0 °F 79% 29.80 in 9.0 mi West 3.5 mph - N/A   Mostly Cloudy
9:52 AM 80.6 °F 84.6 °F 71.6 °F 74% 29.79 in 9.0 mi Calm Calm - N/A   Mostly Cloudy
9:56 AM 80.1 °F 83.8 °F 72.0 °F 76% 29.79 in 9.0 mi Variable 3.5 mph - N/A   Mostly Cloudy
10:19 AM 78.8 °F - 69.8 °F 74% 29.79 in 10.0 mi North 5.8 mph - N/A   Overcast
10:53 AM 80.6 °F 84.6 °F 71.6 °F 74% 29.79 in 10.0 mi Variable 5.8 mph - N/A   Scattered Clouds
10:56 AM 81.0 °F 84.9 °F 71.1 °F 72% 29.79 in 10.0 mi Variable 5.8 mph - N/A   Scattered Clouds
11:07 AM 80.6 °F 84.6 °F 71.6 °F 74% 29.79 in 9.0 mi Variable 4.6 mph - N/A   Mostly Cloudy
11:56 AM 79.0 °F - 71.1 °F 77% 29.78 in 10.0 mi Variable 3.5 mph - N/A   Overcast
12:30 PM 80.6 °F 83.9 °F 69.8 °F 70% 29.78 in 10.0 mi SSE 11.5 mph - N/A   Scattered Clouds
12:56 PM 79.0 °F - 69.1 °F 72% 29.78 in 10.0 mi SSE 13.8 mph - N/A   Clear
1:56 PM 78.1 °F - 70.0 °F 76% 29.77 in 10.0 mi SSE 11.5 mph - N/A   Clear
2:29 PM 77.0 °F - 69.8 °F 78% 29.77 in 9.0 mi Variable 6.9 mph - N/A   Scattered Clouds
2:56 PM 78.1 °F - 70.0 °F 76% 29.77 in 10.0 mi SE 6.9 mph - N/A   Scattered Clouds
3:04 PM 78.8 °F - 69.8 °F 74% 29.77 in 10.0 mi SSE 11.5 mph - N/A   Mostly Cloudy
3:56 PM 78.1 °F - 70.0 °F 76% 29.77 in 9.0 mi South 10.4 mph - N/A   Overcast
4:56 PM 77.0 °F - 70.0 °F 79% 29.75 in 9.0 mi SSE 8.1 mph - N/A   Overcast
5:56 PM 75.0 °F - 69.1 °F 82% 29.73 in 8.0 mi SSE 11.5 mph - N/A   Mostly Cloudy
6:03 PM 75.2 °F - 69.8 °F 83% 29.73 in 8.0 mi South 10.4 mph - N/A   Mostly Cloudy
6:56 PM 73.9 °F - 70.0 °F 87% 29.73 in 7.0 mi South 8.1 mph - N/A   Overcast
7:56 PM 73.0 °F - 69.1 °F 87% 29.73 in 8.0 mi SE 6.9 mph - N/A   Mostly Cloudy
8:25 PM 71.6 °F - 69.8 °F 94% 29.72 in 8.0 mi SE 4.6 mph - N/A   Mostly Cloudy
8:41 PM 71.6 °F - 69.8 °F 94% 29.71 in 8.0 mi ESE 4.6 mph - N/A   Mostly Cloudy
8:51 PM 71.6 °F - 69.8 °F 94% 29.71 in 9.0 mi ESE 5.8 mph - N/A   Mostly Cloudy
8:56 PM 72.0 °F - 69.1 °F 91% 29.70 in 9.0 mi ESE 5.8 mph - N/A   Mostly Cloudy
9:56 PM 72.0 °F - 69.1 °F 91% 29.68 in 8.0 mi SE 8.1 mph - N/A   Overcast
10:15 PM 71.6 °F - 69.8 °F 94% 29.68 in 1.5 mi ESE 10.4 mph - 0.21 in Rain Heavy Rain
10:53 PM 73.4 °F - 71.6 °F 94% 29.66 in 5.0 mi SSE 13.8 mph 23.0 mph N/A   Overcast
10:56 PM 73.9 °F - 72.0 °F 93% 29.65 in 5.0 mi SSE 16.1 mph 23.0 mph N/A   Overcast
11:56 PM 73.0 °F - 72.0 °F 96% 29.64 in 6.0 mi South 15.0 mph 23.0 mph 0.00 in Rain Light Rain